| time (UTC) | temp C | wind direction | speed KPH | gust KPH | rain 1hr cm | rain 24hr cm | rain mn cm | humidity % | barometer mb |
| 20260503193118 | 12 | 213 | 6.4 | 14.5 | 0.00 | 0.00 | 0.00 | 82 | 1016.4 |
| 20260503192542 | 13 | 205 | 6.4 | 14.5 | 0.00 | 0.00 | 0.00 | 81 | 1016.4 |
| 20260503192041 | 12 | 213 | 6.4 | 16.1 | 0.00 | 0.00 | 0.00 | 83 | 1016.3 |
| 20260503191556 | 12 | 218 | 8.0 | 16.1 | 0.00 | 0.00 | 0.00 | 84 | 1016.4 |
| 20260503191044 | 12 | 221 | 6.4 | 12.9 | 0.00 | 0.00 | 0.00 | 85 | 1016.5 |
| 20260503190541 | 12 | 275 | 4.8 | 14.5 | 0.00 | 0.00 | 0.00 | 87 | 1016.6 |
| 20260503190049 | 11 | 211 | 6.4 | 14.5 | 0.00 | 0.00 | 0.00 | 87 | 1016.6 |
| 20260503185543 | 11 | 213 | 4.8 | 14.5 | 0.00 | 0.00 | 0.00 | 87 | 1016.6 |
| 20260503185044 | 11 | 284 | 6.4 | 14.5 | 0.00 | 0.00 | 0.00 | 87 | 1016.6 |
| 20260503184603 | 11 | 196 | 6.4 | 12.9 | 0.00 | 0.00 | 0.00 | 88 | 1016.7 |
| 20260503184043 | 11 | 207 | 4.8 | 14.5 | 0.00 | 0.00 | 0.00 | 89 | 1016.5 |
| 20260503183541 | 11 | 212 | 6.4 | 24.1 | 0.00 | 0.00 | 0.00 | 88 | 1016.5 |
| 20260503183106 | 11 | 229 | 6.4 | 24.1 | 0.00 | 0.00 | 0.00 | 89 | 1016.6 |
| 20260503182540 | 11 | 247 | 8.0 | 24.1 | 0.00 | 0.00 | 0.00 | 87 | 1016.5 |
| 20260503182043 | 11 | 217 | 6.4 | 19.3 | 0.00 | 0.00 | 0.00 | 86 | 1016.5 |
| 20260503181603 | 12 | 230 | 6.4 | 19.3 | 0.00 | 0.00 | 0.00 | 87 | 1016.4 |
| 20260503181043 | 12 | 275 | 8.0 | 19.3 | 0.00 | 0.00 | 0.00 | 86 | 1016.5 |
| 20260503180542 | 11 | 168 | 8.0 | 19.3 | 0.00 | 0.00 | 0.00 | 87 | 1016.4 |
| 20260503180056 | 11 | 123 | 6.4 | 20.9 | 0.00 | 0.00 | 0.00 | 89 | 1016.4 |
| 20260503175545 | 11 | 214 | 8.0 | 20.9 | 0.00 | 0.00 | 0.00 | 91 | 1016.5 |
| 20260503175043 | 10 | 225 | 9.7 | 19.3 | 0.00 | 0.00 | 0.00 | 93 | 1016.4 |
| 20260503174553 | 10 | 263 | 8.0 | 19.3 | 0.00 | 0.00 | 0.00 | 93 | 1016.4 |
| 20260503174042 | 10 | 226 | 6.4 | 19.3 | 0.00 | 0.00 | 0.00 | 93 | 1016.3 |
| 20260503173542 | 10 | 268 | 11.3 | 19.3 | 0.00 | 0.00 | 0.00 | 93 | 1016.1 |
| 20260503173058 | 10 | 227 | 6.4 | 19.3 | 0.00 | 0.00 | 0.00 | 93 | 1016.3 |
| 20260503172544 | 10 | 219 | 6.4 | 19.3 | 0.00 | 0.00 | 0.00 | 92 | 1016.5 |
| 20260503172042 | 10 | 239 | 6.4 | 19.3 | 0.00 | 0.00 | 0.00 | 92 | 1016.2 |
| 20260503171552 | 10 | 221 | 8.0 | 16.1 | 0.00 | 0.00 | 0.00 | 91 | 1016.4 |
| 20260503171042 | 10 | 225 | 6.4 | 17.7 | 0.00 | 0.00 | 0.00 | 91 | 1016.4 |
| 20260503170541 | 10 | 196 | 8.0 | 19.3 | 0.00 | 0.00 | 0.00 | 91 | 1016.4 |
| 20260503150542 | 10 | 232 | 6.4 | 14.5 | 0.00 | 0.00 | 0.00 | 91 | 1015.6 |
| 20260503131044 | 8 | 238 | 6.4 | 12.9 | 0.00 | 0.00 | 0.00 | 93 | 1014.4 |
| 20260503130543 | 8 | 286 | 4.8 | 14.5 | 0.00 | 0.00 | 0.00 | 94 | 1014.3 |
| 20260503110543 | 8 | 243 | 6.4 | 19.3 | 0.00 | 0.00 | 0.00 | 93 | 1014.4 |
| 20260503081617 | 8 | 228 | 4.8 | 14.5 | 0.00 | 0.00 | 0.00 | 94 | 1015.0 |
| 20260503081041 | 8 | 221 | 6.4 | 14.5 | 0.00 | 0.00 | 0.00 | 94 | 1015.0 |
| 20260503080542 | 9 | 265 | 4.8 | 12.9 | 0.00 | 0.00 | 0.00 | 94 | 1015.0 |
| 20260503080108 | 9 | 216 | 3.2 | 16.1 | 0.00 | 0.00 | 0.00 | 94 | 1015.1 |
| 20260503072539 | 9 | 208 | 4.8 | 14.5 | 0.00 | 0.00 | 0.00 | 93 | 1015.0 |
| 20260503072042 | 9 | 160 | 8.0 | 14.5 | 0.00 | 0.00 | 0.00 | 93 | 1015.1 |
| 20260503071551 | 9 | 241 | 6.4 | 12.9 | 0.00 | 0.00 | 0.00 | 93 | 1015.0 |
| 20260503071042 | 9 | 201 | 6.4 | 14.5 | 0.00 | 0.00 | 0.00 | 93 | 1015.1 |
| 20260503070538 | 9 | 225 | 4.8 | 14.5 | 0.00 | 0.00 | 0.00 | 93 | 1015.1 |
| 20260503055041 | 9 | 215 | 4.8 | 16.1 | 0.00 | 0.00 | 0.00 | 93 | 1015.5 |
| 20260503054554 | 9 | 229 | 6.4 | 16.1 | 0.00 | 0.00 | 0.00 | 93 | 1015.5 |
| 20260503054039 | 9 | 275 | 4.8 | 16.1 | 0.00 | 0.00 | 0.00 | 93 | 1015.6 |
| 20260503053542 | 9 | 229 | 8.0 | 17.7 | 0.00 | 0.00 | 0.00 | 93 | 1015.6 |
| 20260503053047 | 9 | 257 | 6.4 | 17.7 | 0.00 | 0.00 | 0.00 | 93 | 1015.5 |
| 20260503052540 | 9 | 265 | 6.4 | 20.9 | 0.00 | 0.00 | 0.00 | 93 | 1015.5 |
| 20260503052043 | 9 | 213 | 4.8 | 20.9 | 0.00 | 0.00 | 0.00 | 93 | 1015.7 |
| 20260503051549 | 9 | 242 | 4.8 | 16.1 | 0.00 | 0.00 | 0.00 | 93 | 1015.5 |
| 20260503051039 | 9 | 277 | 8.0 | 16.1 | 0.00 | 0.00 | 0.00 | 93 | 1015.5 |
| 20260503050542 | 9 | 178 | 6.4 | 16.1 | 0.00 | 0.00 | 0.00 | 93 | 1015.5 |
| 20260503050054 | 9 | 221 | 4.8 | 12.9 | 0.00 | 0.00 | 0.00 | 93 | 1015.5 |
| 20260503045539 | 9 | 192 | 6.4 | 17.7 | 0.00 | 0.00 | 0.00 | 93 | 1015.5 |
| 20260503045043 | 9 | 187 | 8.0 | 17.7 | 0.00 | 0.00 | 0.00 | 93 | 1015.6 |
| 20260503044554 | 9 | 187 | 4.8 | 16.1 | 0.00 | 0.00 | 0.00 | 94 | 1015.5 |
| 20260503044042 | 9 | 202 | 6.4 | 16.1 | 0.00 | 0.00 | 0.00 | 94 | 1015.5 |
| 20260503043542 | 9 | 247 | 8.0 | 14.5 | 0.00 | 0.00 | 0.00 | 94 | 1015.4 |
| 20260503043050 | 9 | 218 | 6.4 | 14.5 | 0.00 | 0.00 | 0.00 | 94 | 1015.4 |
| 20260503042542 | 9 | 239 | 4.8 | 14.5 | 0.00 | 0.00 | 0.00 | 94 | 1015.3 |
| 20260503042039 | 9 | 211 | 4.8 | 14.5 | 0.00 | 0.00 | 0.00 | 94 | 1015.2 |
| 20260503041553 | 9 | 223 | 6.4 | 14.5 | 0.00 | 0.00 | 0.00 | 94 | 1015.2 |
| 20260503041040 | 9 | 232 | 6.4 | 14.5 | 0.00 | 0.00 | 0.00 | 94 | 1015.3 |
| 20260503040542 | 9 | 196 | 4.8 | 16.1 | 0.00 | 0.00 | 0.00 | 94 | 1015.3 |
| 20260503040050 | 9 | 178 | 6.4 | 16.1 | 0.00 | 0.00 | 0.00 | 94 | 1015.3 |
| 20260503035542 | 9 | 182 | 8.0 | 16.1 | 0.00 | 0.00 | 0.00 | 94 | 1015.4 |
| 20260503035042 | 9 | 207 | 6.4 | 12.9 | 0.00 | 0.00 | 0.00 | 94 | 1015.2 |
| 20260503034554 | 9 | 284 | 6.4 | 12.9 | 0.00 | 0.00 | 0.00 | 94 | 1015.3 |
| 20260503034040 | 9 | 203 | 6.4 | 14.5 | 0.00 | 0.00 | 0.00 | 94 | 1015.2 |
| 20260503033545 | 9 | 221 | 3.2 | 16.1 | 0.00 | 0.00 | 0.00 | 94 | 1015.1 |
| 20260503033100 | 9 | 215 | 8.0 | 16.1 | 0.00 | 0.00 | 0.00 | 94 | 1015.2 |
| 20260503032542 | 9 | 288 | 6.4 | 16.1 | 0.00 | 0.00 | 0.00 | 93 | 1015.1 |
| 20260503032041 | 9 | 243 | 6.4 | 16.1 | 0.00 | 0.00 | 0.00 | 93 | 1015.0 |
| 20260503031556 | 9 | 188 | 6.4 | 16.1 | 0.00 | 0.00 | 0.00 | 94 | 1015.0 |
| 20260503031039 | 9 | 211 | 4.8 | 16.1 | 0.00 | 0.00 | 0.00 | 93 | 1014.8 |
| 20260503030539 | 9 | 196 | 6.4 | 17.7 | 0.00 | 0.00 | 0.00 | 93 | 1014.8 |
| 20260503030054 | 9 | 200 | 6.4 | 17.7 | 0.00 | 0.00 | 0.00 | 93 | 1014.8 |
| 20260503025542 | 9 | 203 | 8.0 | 19.3 | 0.00 | 0.00 | 0.00 | 93 | 1014.6 |
| 20260503025040 | 9 | 212 | 8.0 | 19.3 | 0.00 | 0.00 | 0.00 | 92 | 1014.7 |
| 20260503024610 | 10 | 265 | 6.4 | 14.5 | 0.00 | 0.00 | 0.00 | 92 | 1014.7 |
| 20260503024039 | 10 | 193 | 6.4 | 14.5 | 0.00 | 0.00 | 0.00 | 92 | 1014.7 |
| 20260503023543 | 10 | 209 | 6.4 | 17.7 | 0.00 | 0.00 | 0.00 | 92 | 1014.8 |
| 20260503023047 | 10 | 233 | 6.4 | 19.3 | 0.00 | 0.00 | 0.00 | 92 | 1014.5 |
| 20260503022539 | 10 | 212 | 8.0 | 19.3 | 0.00 | 0.00 | 0.00 | 92 | 1014.6 |
| 20260503022042 | 10 | 233 | 6.4 | 19.3 | 0.00 | 0.00 | 0.00 | 92 | 1014.6 |
| 20260503021548 | 10 | 243 | 8.0 | 19.3 | 0.00 | 0.00 | 0.00 | 91 | 1014.6 |
| 20260503021042 | 10 | 196 | 8.0 | 19.3 | 0.00 | 0.00 | 0.00 | 91 | 1014.7 |
| 20260503020539 | 10 | 237 | 6.4 | 19.3 | 0.00 | 0.00 | 0.00 | 91 | 1014.8 |
| 20260503020050 | 10 | 237 | 8.0 | 19.3 | 0.00 | 0.00 | 0.00 | 90 | 1014.7 |
| 20260503015546 | 10 | 216 | 8.0 | 17.7 | 0.00 | 0.00 | 0.00 | 90 | 1014.6 |
| 20260503015041 | 10 | 211 | 9.7 | 17.7 | 0.00 | 0.00 | 0.00 | 90 | 1014.7 |
| 20260503014550 | 10 | 203 | 6.4 | 16.1 | 0.00 | 0.00 | 0.00 | 89 | 1014.8 |
| 20260503014042 | 10 | 221 | 8.0 | 17.7 | 0.00 | 0.00 | 0.00 | 89 | 1014.8 |
| 20260503013544 | 10 | 171 | 9.7 | 22.5 | 0.00 | 0.00 | 0.00 | 89 | 1014.9 |
| 20260503013049 | 10 | 213 | 9.7 | 22.5 | 0.00 | 0.00 | 0.00 | 88 | 1014.9 |
| 20260503012544 | 10 | 9 | 9.7 | 24.1 | 0.00 | 0.00 | 0.00 | 88 | 1015.0 |
| 20260503012039 | 10 | 247 | 11.3 | 24.1 | 0.00 | 0.00 | 0.00 | 87 | 1015.0 |
| 20260503011553 | 10 | 226 | 8.0 | 25.7 | 0.00 | 0.00 | 0.00 | 87 | 1015.0 |
| 20260503011040 | 10 | 205 | 8.0 | 25.7 | 0.00 | 0.00 | 0.00 | 86 | 1015.0 |
| 20260503010539 | 10 | 246 | 11.3 | 25.7 | 0.00 | 0.00 | 0.00 | 86 | 1015.0 |
| 20260503010047 | 11 | 212 | 9.7 | 27.4 | 0.00 | 0.00 | 0.00 | 85 | 1015.1 |
| 20260503005539 | 11 | 229 | 9.7 | 27.4 | 0.00 | 0.00 | 0.00 | 86 | 1015.0 |
| 20260503005039 | 11 | 225 | 9.7 | 27.4 | 0.00 | 0.00 | 0.00 | 86 | 1015.0 |
| 20260503004548 | 11 | 226 | 12.9 | 24.1 | 0.00 | 0.00 | 0.00 | 85 | 1015.0 |
| 20260503004042 | 11 | 218 | 6.4 | 16.1 | 0.00 | 0.00 | 0.00 | 85 | 1015.1 |
| 20260503003544 | 11 | 303 | 8.0 | 17.7 | 0.00 | 0.00 | 0.00 | 85 | 1015.2 |
| 20260503003051 | 11 | 241 | 8.0 | 20.9 | 0.00 | 0.00 | 0.00 | 86 | 1015.3 |
| 20260503002545 | 11 | 194 | 9.7 | 20.9 | 0.00 | 0.00 | 0.00 | 86 | 1015.2 |
| 20260503002042 | 11 | 205 | 8.0 | 20.9 | 0.00 | 0.00 | 0.00 | 84 | 1015.2 |
| 20260503001559 | 11 | 223 | 8.0 | 20.9 | 0.00 | 0.00 | 0.00 | 85 | 1015.3 |
| 20260503001041 | 11 | 221 | 8.0 | 19.3 | 0.00 | 0.00 | 0.00 | 85 | 1015.1 |
| 20260503000542 | 11 | 227 | 8.0 | 17.7 | 0.00 | 0.00 | 0.00 | 85 | 1015.2 |
| 20260503000106 | 12 | 202 | 6.4 | 16.1 | 0.00 | 0.00 | 0.00 | 84 | 1015.3 |
| 20260502235544 | 12 | 244 | 6.4 | 16.1 | 0.00 | 0.00 | 0.00 | 85 | 1015.3 |
| 20260502235043 | 12 | 225 | 8.0 | 25.7 | 0.00 | 0.00 | 0.00 | 84 | 1015.3 |
| 20260502234606 | 12 | 221 | 8.0 | 25.7 | 0.00 | 0.00 | 0.00 | 84 | 1015.3 |
| 20260502234043 | 12 | 265 | 6.4 | 22.5 | 0.00 | 0.00 | 0.00 | 84 | 1015.4 |
| 20260502233545 | 12 | 207 | 11.3 | 20.9 | 0.00 | 0.00 | 0.00 | 82 | 1015.4 |
| 20260502233106 | 12 | 196 | 6.4 | 19.3 | 0.00 | 0.00 | 0.00 | 84 | 1015.5 |
| 20260502232542 | 12 | 250 | 8.0 | 24.1 | 0.00 | 0.00 | 0.00 | 82 | 1015.5 |
| 20260502232041 | 12 | 238 | 9.7 | 24.1 | 0.00 | 0.00 | 0.00 | 83 | 1015.6 |
| 20260502231603 | 12 | 250 | 8.0 | 19.3 | 0.00 | 0.00 | 0.00 | 81 | 1015.6 |
| 20260502231046 | 12 | 273 | 6.4 | 14.5 | 0.00 | 0.00 | 0.00 | 81 | 1015.6 |
| 20260502230543 | 13 | 227 | 8.0 | 24.1 | 0.00 | 0.00 | 0.00 | 82 | 1015.7 |
| 20260502230054 | 12 | 272 | 9.7 | 24.1 | 0.00 | 0.00 | 0.00 | 81 | 1015.8 |
| 20260502225546 | 13 | 202 | 9.7 | 20.9 | 0.00 | 0.00 | 0.00 | 79 | 1015.8 |
| 20260502225042 | 13 | 225 | 8.0 | 25.7 | 0.00 | 0.00 | 0.00 | 81 | 1015.9 |
| 20260502224552 | 12 | 208 | 14.5 | 25.7 | 0.00 | 0.00 | 0.00 | 81 | 1015.9 |
| 20260502224044 | 13 | 193 | 8.0 | 22.5 | 0.00 | 0.00 | 0.00 | 82 | 1015.9 |
| 20260502223543 | 13 | 238 | 9.7 | 24.1 | 0.00 | 0.00 | 0.00 | 80 | 1016.0 |
| 20260502223052 | 12 | 221 | 11.3 | 24.1 | 0.00 | 0.00 | 0.00 | 82 | 1016.1 |
| 20260502222543 | 12 | 265 | 8.0 | 25.7 | 0.00 | 0.00 | 0.00 | 82 | 1016.2 |
| 20260502222042 | 12 | 221 | 11.3 | 25.7 | 0.00 | 0.00 | 0.00 | 82 | 1016.3 |
| 20260502221600 | 12 | 235 | 11.3 | 22.5 | 0.00 | 0.00 | 0.00 | 83 | 1016.3 |
| 20260502221043 | 12 | 186 | 11.3 | 22.5 | 0.00 | 0.00 | 0.00 | 81 | 1016.4 |
| 20260502220543 | 12 | 205 | 9.7 | 20.9 | 0.00 | 0.00 | 0.00 | 82 | 1016.4 |
| 20260502220053 | 12 | 228 | 8.0 | 19.3 | 0.00 | 0.00 | 0.00 | 82 | 1016.4 |
| 20260502215542 | 12 | 261 | 8.0 | 22.5 | 0.00 | 0.00 | 0.00 | 83 | 1016.4 |
| 20260502215044 | 12 | 223 | 8.0 | 22.5 | 0.00 | 0.00 | 0.00 | 83 | 1016.5 |
| 20260502214604 | 12 | 190 | 8.0 | 17.7 | 0.00 | 0.00 | 0.00 | 83 | 1016.5 |
| 20260502214044 | 12 | 186 | 8.0 | 22.5 | 0.00 | 0.00 | 0.00 | 84 | 1016.6 |
| 20260502213542 | 11 | 210 | 12.9 | 22.5 | 0.00 | 0.00 | 0.00 | 84 | 1016.7 |
| 20260502213053 | 12 | 232 | 9.7 | 20.9 | 0.00 | 0.00 | 0.00 | 83 | 1016.7 |
| 20260502212540 | 12 | 203 | 8.0 | 20.9 | 0.00 | 0.00 | 0.00 | 85 | 1016.6 |
| 20260502212042 | 11 | 221 | 9.7 | 19.3 | 0.00 | 0.00 | 0.00 | 85 | 1016.6 |
| 20260502211550 | 11 | 229 | 11.3 | 22.5 | 0.00 | 0.00 | 0.00 | 85 | 1016.8 |
| 20260502211042 | 11 | 205 | 8.0 | 24.1 | 0.00 | 0.00 | 0.00 | 86 | 1016.8 |
| 20260502210540 | 11 | 217 | 9.7 | 24.1 | 0.00 | 0.00 | 0.00 | 85 | 1016.8 |
| 20260502210047 | 11 | 218 | 8.0 | 22.5 | 0.00 | 0.00 | 0.00 | 86 | 1016.9 |
| 20260502205539 | 11 | 221 | 9.7 | 22.5 | 0.00 | 0.00 | 0.00 | 87 | 1017.0 |
| 20260502205039 | 11 | 238 | 11.3 | 22.5 | 0.00 | 0.00 | 0.00 | 87 | 1017.0 |
| 20260502204551 | 11 | 235 | 9.7 | 20.9 | 0.00 | 0.00 | 0.00 | 87 | 1017.1 |
| 20260502204041 | 11 | 213 | 8.0 | 19.3 | 0.00 | 0.00 | 0.00 | 88 | 1017.1 |
| 20260502203540 | 11 | 228 | 8.0 | 20.9 | 0.00 | 0.00 | 0.00 | 89 | 1017.2 |
| 20260502203055 | 11 | 219 | 9.7 | 22.5 | 0.00 | 0.00 | 0.00 | 90 | 1017.2 |
| 20260502202539 | 10 | 198 | 11.3 | 25.7 | 0.00 | 0.00 | 0.00 | 90 | 1017.2 |
| 20260502202039 | 10 | 225 | 9.7 | 25.7 | 0.00 | 0.00 | 0.00 | 90 | 1017.3 |
| 20260502201549 | 10 | 239 | 9.7 | 22.5 | 0.00 | 0.00 | 0.00 | 91 | 1017.4 |
| 20260502201039 | 10 | 171 | 8.0 | 20.9 | 0.00 | 0.00 | 0.00 | 91 | 1017.3 |
| 20260502200545 | 10 | 244 | 6.4 | 19.3 | 0.00 | 0.00 | 0.00 | 92 | 1017.4 |
| 20260502200048 | 10 | 219 | 6.4 | 17.7 | 0.00 | 0.00 | 0.00 | 92 | 1017.4 |
| 20260502195541 | 10 | 219 | 9.7 | 20.9 | 0.00 | 0.00 | 0.00 | 92 | 1017.4 |
| 20260502195040 | 10 | 175 | 9.7 | 20.9 | 0.00 | 0.00 | 0.00 | 92 | 1017.3 |
| 20260502194549 | 10 | 195 | 8.0 | 22.5 | 0.00 | 0.00 | 0.00 | 93 | 1017.4 |
| 20260502194039 | 10 | 219 | 8.0 | 22.5 | 0.00 | 0.00 | 0.00 | 93 | 1017.4 |
| 20260502193539 | 10 | 239 | 8.0 | 22.5 | 0.00 | 0.00 | 0.00 | 94 | 1017.4 |